Total_Precipitation_Accumulation
1.55 1.56 1.56 1.58 1.71 1.87 2.04 2.32 2.53 2.43 2.13 1.88 1.84 1.76 1.71 1.77 1.96 1.70 1.58 1.61 1.46 1.36 1.35 1.32 1.35 1.39 1.43 1.39 1.40 1.47 1.58 1.74 1.99 2.18 2.35 2.56 2.71 2.84
1.44 1.41 1.39 1.39 1.47 1.51 1.63 1.83 2.12 2.34 2.16 1.79 1.73 1.65 1.64 1.57 1.80 1.60 1.58 1.60 1.38 1.21 1.14 1.12 1.13 1.19 1.21 1.19 1.20 1.23 1.29 1.38 1.56 1.77 1.99 2.20 2.37 2.55
1.27 1.30 1.32 1.37 1.44 1.39 1.43 1.55 1.73 1.98 2.11 1.89 1.72 1.63 1.61 1.67 1.65 1.54 1.44 1.36 1.26 1.21 1.06 0.99 0.99 1.06 1.07 1.06 1.10 1.13 1.14 1.24 1.40 1.57 1.76 1.96 2.13 2.23
1.18 1.27 1.28 1.30 1.37 1.38 1.44 1.50 1.62 1.82 1.97 2.01 1.82 1.66 1.61 1.63 1.64 1.57 1.31 1.19 1.17 1.24 1.09 0.97 0.90 0.89 0.98 0.97 0.98 1.04 1.12 1.20 1.31 1.44 1.60 1.76 1.89 1.98
1.12 1.19 1.24 1.29 1.30 1.32 1.38 1.42 1.55 1.69 1.87 1.97 1.86 1.72 1.65 1.60 1.70 1.58 1.44 1.50 1.24 1.17 1.09 1.02 0.94 0.92 1.13 1.16 0.95 0.94 1.00 1.10 1.18 1.27 1.40 1.52 1.61 1.68
0.96 1.08 1.14 1.19 1.20 1.28 1.33 1.40 1.49 1.68 1.85 1.92 1.81 1.69 1.63 1.64 1.74 1.75 1.65 1.58 1.43 1.13 1.12 1.07 1.02 1.04 1.36 1.86 1.37 1.07 1.03 1.08 1.15 1.21 1.25 1.26 1.27 1.30
0.87 0.95 1.01 1.03 1.03 1.10 1.12 1.25 1.43 1.61 1.72 1.82 1.77 1.71 1.64 1.76 1.78 1.70 1.65 1.62 1.48 1.31 1.29 1.16 1.27 1.55 2.07 2.68 2.20 1.57 1.35 1.23 1.16 1.20 1.22 1.19 1.13 1.09
0.92 0.94 0.89 0.89 0.86 0.82 0.89 1.00 1.19 1.43 1.65 1.76 1.73 1.73 1.68 1.74 1.85 1.82 1.77 1.79 1.72 1.45 1.39 1.33 1.52 2.26 2.89 3.17 2.71 1.88 1.57 1.36 1.24 1.27 1.32 1.28 1.13 1.02
0.99 0.96 0.81 0.76 0.87 0.89 0.90 0.92 1.04 1.17 1.42 1.69 1.77 1.69 1.71 1.76 1.94 1.99 1.91 1.88 1.80 1.57 1.60 1.59 1.76 2.56 2.79 2.90 2.72 1.94 1.63 1.48 1.43 1.50 1.48 1.29 1.10 0.98
0.80 0.86 0.93 0.94 0.89 0.93 0.93 1.03 1.11 1.22 1.30 1.44 1.65 1.61 1.58 1.71 1.86 1.89 1.84 1.78 1.70 1.57 1.61 1.75 1.93 2.43 2.40 2.50 2.53 2.00 1.69 1.57 1.52 1.53 1.49 1.26 1.06 0.95
0.63 0.68 0.75 0.80 0.80 0.87 0.98 1.15 1.21 1.34 1.32 1.48 1.51 1.46 1.47 1.52 1.51 1.59 1.83 1.97 1.86 1.60 1.51 1.65 1.84 2.14 2.18 2.24 2.13 1.93 1.74 1.63 1.52 1.46 1.37 1.15 1.03 0.98
0.69 0.74 0.71 0.65 0.70 0.81 1.01 1.25 1.41 1.46 1.54 1.67 1.63 1.60 1.51 1.48 1.42 1.46 1.77 2.01 1.98 1.74 1.47 1.51 1.64 1.83 2.07 2.04 1.86 1.72 1.75 1.77 1.65 1.57 1.40 1.12 0.91 0.87
0.74 0.81 0.80 0.67 0.61 0.69 0.90 1.13 1.30 1.35 1.59 1.84 1.70 1.54 1.49 1.46 1.44 1.45 1.61 1.73 1.72 1.61 1.36 1.46 1.65 1.74 1.86 1.91 1.84 1.79 1.70 1.69 1.69 1.74 1.62 1.30 0.98 0.79
0.77 0.77 0.76 0.71 0.68 0.75 0.90 1.07 1.20 1.40 1.61 1.72 1.52 1.35 1.26 1.24 1.29 1.27 1.27 1.30 1.37 1.35 1.29 1.43 1.69 1.84 1.83 1.71 1.79 1.79 1.77 1.76 1.75 1.77 1.76 1.58 1.27 1.07
0.68 0.73 0.70 0.66 0.76 0.97 1.09 1.19 1.35 1.59 1.64 1.51 1.37 1.24 1.13 1.15 1.14 1.13 1.13 1.18 1.18 1.06 1.00 1.15 1.43 1.64 1.74 1.71 1.73 1.72 1.82 1.99 1.97 1.93 1.86 1.69 1.46 1.24
0.65 0.78 0.82 0.82 0.98 1.18 1.32 1.42 1.53 1.63 1.49 1.35 1.28 1.16 1.05 1.12 1.17 1.13 1.22 1.26 1.25 1.18 1.07 1.08 1.24 1.47 1.58 1.57 1.70 1.79 1.83 2.20 2.26 2.06 2.01 1.93 1.67 1.43
0.63 0.81 0.95 0.99 1.10 1.25 1.38 1.45 1.51 1.52 1.44 1.31 1.24 1.16 1.09 1.09 1.06 1.01 1.11 1.18 1.22 1.23 1.21 1.18 1.22 1.32 1.40 1.47 1.66 1.78 1.90 2.14 2.25 2.04 1.93 2.01 1.87 1.58
0.71 0.96 1.04 1.02 1.07 1.16 1.28 1.38 1.39 1.37 1.33 1.34 1.33 1.29 1.21 1.11 1.07 1.01 1.02 1.10 1.18 1.16 1.16 1.15 1.15 1.18 1.28 1.39 1.56 1.67 1.71 1.90 1.96 1.82 1.64 1.70 1.85 1.65
0.74 0.95 1.05 1.08 1.10 1.14 1.17 1.23 1.29 1.31 1.26 1.28 1.30 1.24 1.14 1.06 1.03 1.02 1.02 1.08 1.11 1.06 0.99 0.93 0.94 1.02 1.15 1.43 1.58 1.61 1.60 1.63 1.64 1.64 1.53 1.43 1.54 1.53
0.74 0.92 1.02 1.07 1.12 1.16 1.16 1.14 1.19 1.23 1.19 1.14 1.18 1.16 1.08 1.03 1.03 1.04 1.04 1.00 1.00 0.95 0.92 0.86 0.84 0.92 1.06 1.27 1.63 1.77 1.54 1.35 1.32 1.42 1.44 1.39 1.48 1.50
0.68 0.80 0.90 0.98 1.00 1.02 1.07 1.09 1.13 1.17 1.12 1.07 1.11 1.12 1.10 1.04 0.98 0.90 0.86 0.79 0.86 0.89 0.87 0.87 0.85 0.80 0.78 0.91 1.20 1.48 1.53 1.39 1.25 1.23 1.24 1.31 1.35 1.25
0.63 0.72 0.81 0.85 0.85 0.82 0.83 0.87 0.91 0.94 0.95 1.00 1.05 1.02 0.95 0.91 0.83 0.75 0.75 0.78 0.83 0.86 0.84 0.79 0.75 0.75 0.79 0.91 1.07 1.25 1.35 1.23 1.13 1.11 1.09 1.05 1.03 1.08
0.68 0.71 0.74 0.75 0.74 0.71 0.69 0.69 0.74 0.79 0.82 0.85 0.91 0.89 0.82 0.77 0.72 0.66 0.63 0.63 0.65 0.67 0.71 0.74 0.76 0.76 0.78 0.81 0.84 0.94 1.03 1.04 0.97 0.94 1.02 1.02 0.94 1.01